Showing default

TELKOM 1, 25880

Orbit data source: Space-Track

TELKOM 1, 25880 is a payload satellite owned by Telkom (ID) in GEO that was launched on Thu, 12 Aug 1999 UTC via an ARIANE 42P launch vehicle from the French Guiana (FRGUI). Payload-class satellites include a variety of spacecraft equipped with specific instruments for various scientific and technological missions. These include communications satellites like Starlink; space stations such as the ISS; scientific satellites like the Hubble; Earth observation satellites from companies like Planet Labs, Umbra, and HawkEye 360; GPS; miniature CubeSats for education and research; and military/defense satellites.

Not visible in the next 10 days
Identifier
25880, 1999-042A
Orbit
GEO
Last TLE update
13 hours ago
Origin
Manufacturer
LMCSS
Mission
Non-operational Commercial Communications
Bus & Motor
A2100, LEROS 1C
Mass
2,763 kg wet, ~1,500 kg dry
Launch date (UTC)
1999-08-12 (26 years ago)
Launch vehicle
ARIANE 42P
Launch site
French Guiana (FRGUI)
Object type
Payload
Rocket body
Debris
Shape & HBR
Box + 1 Pan, 22.5 m
Radar Cross Section
38.975 m², Large (>1 m²)

Expand to show TLE details & history

TLE from 13 hours ago
0 TELKOM 1
1 25880U 99042A   25189.79759966 -.00000137  00000-0  00000-0 0  9992
2 25880   6.8274  70.2776 0013921 250.0122 333.9501  1.00300577 94942
Epoch: 2025-07-08T19:08Z
TLE epoch observation values (Epoch: 2025-07-08T19:08:32.61Z)
Latitude
-4.75605°
Longitude
79.8498°
Altitude
35,725.87 km
Speed
3.079 km/s
True Right ascension
19h 35m 53s
True Declination
-4° 45' 04"
Sunlit
Object was in daylight at epoch
Visualization orbit readout
Latitude
5.57658°
Longitude
-89.65828°
Altitude
35,834.2 km
Speed
3.071 km/s
Apparent Right ascension
08h 15m 42s
Apparent Declination
0° 01' 59"
Sunlit
Object is in daylight
Visualization observer readout
Local Sidereal Time
19:57:17
Azimuth
352.85° N
Elevation
-49.83°
Doppler factor
1
Orbital elements
Apogee altitude
35,838.262 km
Perigee altitude
35,720.886 km
Semi-major axis
42,157.711 km
Eccentricity
0.00139
Inclination
6.8274°
RAAN
70.2776°
Arg. of periapsis
250.0122°
True anomaly
Unknown
Mean anomaly
333.9501°
Eccentric anomaly
Unknown
Mean motion
0.25074 °/min
Orbital period
1,435.74 mins
BSTAR
0
Loading historical data...
25880 neighbors
Loading maneuver chart data...
Loading SW <> Apogee altitude chart data...
Loading historical data...
Loading historical data...
Loading historical data...
Loading historical data...
Loading historical data...
Loading historical data...
Loading historical data...
Other satellites on launch #42 in the year 1999 (1999-08-12 UTC)

TELKOM 1 Visibility

Observer location: undefined°, undefined°

TELKOM 1 is likely not visible in the next few days
Span
Click to sort rows by Start time (UTC) header in descending order
Start Az.
Max El. time (UTC)
Max El. Az.
Max El.
End time (UTC)
End Az.
|